OneWeb SL0492

operational
NORAD ID: 54114 Int'l Des: 2022-138 Owner: ONEWEBN Country: UK Constellation: oneweb
LEOCIRCULARPOLARONEWEB_TYPE

About OneWeb SL0492

Description loading...

Live Position

Loading 3D Globe...

Upcoming Passes

Altitude History

Altitude vs Time

uPlot chart will show altitude changes over time

Two-Line Element Set

1 54114U 22138B 25260.82593213 .00000031 00000-0 44494-4 0 9992
2 54114 87.9284 359.1335 0001756 106.1931 253.9396 13.19725590140918
Epoch: Sep 17, 2025 • Age: 13 hours

Current Status

Altitude 1189.3 km
Velocity 7.26 km/s
Sub-Earth Point 34.19°N, 40.63°E
Launch Date Oct 22, 2022
Age 2.9 years
Type internet

Technical Details

Classification Payload
Mass 148.00 kg
Dry Mass 140.00 kg
Total Mass 148.00 kg
Length 1.30 m
Diameter 1.00 m
Span 5.00 m
Shape Trapezoid+2 pan
Manufacturer ONEWUS
Bus Type ARROW
Phase Status In Orbit
Owner/State ONEWEBN/UK

Large Constellations

Loading constellations...